This is the latest recevied weather packets stored in our database for station/object YO4CIL-MG. If no packets are shown the sender has not sent any weather packets the latest 10 day(s).
| Time | Temp. | Humidity | Pressure | Rain* | Wind** | Luminosity | Snow |
|---|---|---|---|---|---|---|---|
| 1777661720 | 9.44° C | 56% | 1025 hPa | - | - | - | - |
| 1777661120 | 10° C | 53% | 1024.9 hPa | - | - | - | - |
| 1777660520 | 10° C | 52% | 1024.9 hPa | - | - | - | - |
| 1777659920 | 10.56° C | 50% | 1025 hPa | - | - | - | - |
| 1777659320 | 10.56° C | 50% | 1025 hPa | - | - | - | - |
| 1777658720 | 10.56° C | 49% | 1025 hPa | - | - | - | - |
| 1777658120 | 10.56° C | 48% | 1025 hPa | - | - | - | - |
| 1777657520 | 11.11° C | 49% | 1025 hPa | - | - | - | - |
| 1777656920 | 10.56° C | 48% | 1024.9 hPa | - | - | - | - |
| 1777656320 | 11.11° C | 48% | 1024.9 hPa | - | - | - | - |
| 1777655720 | 11.11° C | 49% | 1024.9 hPa | - | - | - | - |
| 1777655120 | 11.11° C | 49% | 1024.8 hPa | - | - | - | - |
| 1777654520 | 11.11° C | 49% | 1024.9 hPa | - | - | - | - |
| 1777653920 | 11.67° C | 49% | 1024.8 hPa | - | - | - | - |
| 1777653320 | 11.67° C | 47% | 1024.8 hPa | - | - | - | - |
| 1777652720 | 11.67° C | 47% | 1024.7 hPa | - | - | - | - |
| 1777652120 | 12.22° C | 46% | 1024.6 hPa | - | - | - | - |
| 1777651520 | 12.22° C | 46% | 1024.6 hPa | - | - | - | - |
| 1777650920 | 13.33° C | 44% | 1024.7 hPa | - | - | - | - |
| 1777650320 | 13.33° C | 43% | 1024.6 hPa | - | - | - | - |
| 1777649720 | 12.22° C | 44% | 1024.5 hPa | - | - | - | - |
| 1777649120 | 13.33° C | 44% | 1024.5 hPa | - | - | - | - |
| 1777648520 | 13.33° C | 42% | 1024.4 hPa | - | - | - | - |
| 1777647920 | 13.89° C | 43% | 1024.4 hPa | - | - | - | - |
| 1777647320 | 12.78° C | 45% | 1024.4 hPa | - | - | - | - |
* Rain since midnight (hover to see other rain measurements)
** Current wind speed in m/s (hover to see current wind gust speed)